VBD205 SBCF-SBSV

Flight info

Callsign VBD205
Flight time N/A
Altitude 12000
Route ILPIR UZ23 EDNOB
Aircraft TBM9/L-SDFGRWY/S

Departure

Time 2026-05-01 14:41
Airport Tancredo Neves International Airport (SBCF)

Arrival

Time N/A
Airport Deputado Luiz Eduardo Magalhães International Airport (SBSV)
Time Latitude Longitude Altitude Speed Heading
2026-05-01 14:10 -19.63012 -43.96862 2717 ft 0 kts 228°
2026-05-01 14:31 -19.63013 -43.96863 2717 ft 0 kts 231°
2026-05-01 14:31 -19.62984 -43.96853 2717 ft 10 kts 52°
2026-05-01 14:31 -19.62925 -43.96840 2717 ft 12 kts 324°
2026-05-01 14:31 -19.62849 -43.96897 2717 ft 15 kts 319°
2026-05-01 14:32 -19.62768 -43.96975 2717 ft 17 kts 298°
2026-05-01 14:32 -19.62825 -43.97079 2723 ft 18 kts 226°
2026-05-01 14:32 -19.62789 -43.97182 2717 ft 19 kts 317°
2026-05-01 14:32 -19.62687 -43.97286 2720 ft 21 kts 316°
2026-05-01 14:33 -19.62618 -43.97338 2717 ft 0 kts 329°
2026-05-01 14:37 -19.62596 -43.97363 2717 ft 7 kts 319°
2026-05-01 14:37 -19.62549 -43.97404 2717 ft 10 kts 319°
2026-05-01 14:37 -19.62490 -43.97465 2717 ft 13 kts 314°
2026-05-01 14:38 -19.62413 -43.97532 2717 ft 16 kts 310°
2026-05-01 14:38 -19.62326 -43.97609 2724 ft 17 kts 317°
2026-05-01 14:38 -19.62257 -43.97680 2721 ft 13 kts 311°
2026-05-01 14:38 -19.62262 -43.97769 2717 ft 15 kts 217°
2026-05-01 14:39 -19.62307 -43.97787 2717 ft 0 kts 191°
2026-05-01 14:40 -19.62309 -43.97787 2717 ft 2 kts 190°
2026-05-01 14:40 -19.62342 -43.97792 2716 ft 7 kts 187°
2026-05-01 14:40 -19.62392 -43.97773 2716 ft 9 kts 139°
2026-05-01 14:41 -19.62537 -43.97634 2716 ft 58 kts 136°
2026-05-01 14:41 -19.62811 -43.97394 2717 ft 95 kts 140°
2026-05-01 14:41 -19.63630 -43.96676 3054 ft 128 kts 140°
2026-05-01 14:41 -19.64351 -43.95987 3343 ft 151 kts 139°
2026-05-01 14:42 -19.64901 -43.95476 3543 ft 166 kts 140°
2026-05-01 14:42 -19.65814 -43.94637 3851 ft 181 kts 140°
2026-05-01 14:42 -19.66800 -43.93734 4167 ft 192 kts 140°
2026-05-01 14:42 -19.67832 -43.92778 4478 ft 200 kts 138°
2026-05-01 14:43 -19.68587 -43.91541 4758 ft 206 kts 106°
2026-05-01 14:43 -19.68528 -43.90025 5041 ft 211 kts 72°
2026-05-01 14:43 -19.67951 -43.88577 5347 ft 213 kts 66°
2026-05-01 14:43 -19.67324 -43.87142 5651 ft 216 kts 66°
2026-05-01 14:44 -19.66752 -43.85665 5947 ft 216 kts 70°
2026-05-01 14:44 -19.65683 -43.82674 6550 ft 217 kts 69°
2026-05-01 14:44 -19.65138 -43.81173 6857 ft 218 kts 70°
2026-05-01 14:45 -19.64593 -43.79677 7145 ft 218 kts 69°
2026-05-01 14:45 -19.63501 -43.76672 7745 ft 218 kts 70°
2026-05-01 14:45 -19.62958 -43.75169 8037 ft 219 kts 69°
2026-05-01 14:46 -19.62408 -43.73662 8347 ft 219 kts 69°
2026-05-01 14:46 -19.60821 -43.70927 8918 ft 220 kts 50°
2026-05-01 14:46 -19.59845 -43.69670 9216 ft 220 kts 51°
2026-05-01 14:47 -19.58881 -43.68412 9518 ft 220 kts 51°
2026-05-01 14:47 -19.57905 -43.67155 9816 ft 221 kts 51°
2026-05-01 14:47 -19.56929 -43.65900 10112 ft 221 kts 51°
2026-05-01 14:48 -19.54962 -43.63368 10710 ft 223 kts 51°
2026-05-01 14:48 -19.53977 -43.62099 11009 ft 224 kts 51°
2026-05-01 14:48 -19.51983 -43.59533 11607 ft 226 kts 51°
2026-05-01 14:49 -19.49486 -43.57422 11758 ft 243 kts 33°
2026-05-01 14:49 -19.46608 -43.55413 11768 ft 251 kts 34°
2026-05-01 14:50 -19.44141 -43.53711 11769 ft 254 kts 33°
2026-05-01 14:50 -19.40693 -43.51326 11768 ft 255 kts 33°
2026-05-01 14:51 -19.39198 -43.50295 11768 ft 257 kts 33°
2026-05-01 14:51 -19.36205 -43.48227 11762 ft 257 kts 33°
2026-05-01 14:52 -19.33208 -43.46159 11760 ft 257 kts 33°
2026-05-01 14:52 -19.31719 -43.45129 11759 ft 256 kts 33°
2026-05-01 14:52 -19.28845 -43.42902 11758 ft 255 kts 37°
2026-05-01 14:53 -19.27420 -43.41776 11755 ft 255 kts 37°
2026-05-01 14:53 -19.26003 -43.40654 11755 ft 255 kts 37°
2026-05-01 14:53 -19.24582 -43.39524 11755 ft 255 kts 37°
2026-05-01 14:53 -19.23158 -43.38394 11753 ft 255 kts 37°
2026-05-01 14:54 -19.21742 -43.37268 11753 ft 255 kts 37°
2026-05-01 14:54 -19.20321 -43.36139 11755 ft 255 kts 37°
2026-05-01 14:54 -19.18906 -43.35014 11752 ft 255 kts 37°
2026-05-01 14:54 -19.17485 -43.33888 11754 ft 255 kts 37°
2026-05-01 14:55 -19.16066 -43.32762 11752 ft 254 kts 37°
2026-05-01 14:55 -19.14654 -43.31641 11755 ft 255 kts 37°
2026-05-01 14:55 -19.13234 -43.30513 11754 ft 255 kts 37°
2026-05-01 14:55 -19.11812 -43.29386 11756 ft 255 kts 37°
2026-05-01 14:56 -19.10394 -43.28262 11752 ft 255 kts 37°
2026-05-01 14:56 -19.08973 -43.27134 11755 ft 255 kts 37°
2026-05-01 14:56 -19.07555 -43.26011 11754 ft 255 kts 37°
2026-05-01 14:56 -19.06133 -43.24885 11753 ft 255 kts 37°
2026-05-01 14:57 -19.04713 -43.23759 11755 ft 255 kts 37°
2026-05-01 14:57 -19.01869 -43.21505 11754 ft 255 kts 37°
2026-05-01 14:57 -19.00458 -43.20389 11857 ft 251 kts 37°
2026-05-01 14:58 -18.99062 -43.19289 11974 ft 250 kts 37°
2026-05-01 14:58 -18.97659 -43.18176 11996 ft 255 kts 37°
2026-05-01 14:58 -18.96226 -43.17038 11997 ft 260 kts 37°
2026-05-01 14:58 -18.94767 -43.15879 11999 ft 264 kts 37°
2026-05-01 14:59 -18.93290 -43.14711 12000 ft 267 kts 37°
2026-05-01 14:59 -18.91800 -43.13535 12001 ft 268 kts 37°
2026-05-01 14:59 -18.90306 -43.12354 11998 ft 268 kts 37°
2026-05-01 14:59 -18.88811 -43.11172 11996 ft 269 kts 37°
2026-05-01 15:00 -18.85820 -43.08808 11997 ft 268 kts 37°
2026-05-01 15:00 -18.84323 -43.07626 11997 ft 269 kts 37°
2026-05-01 15:00 -18.82823 -43.06443 11997 ft 269 kts 37°
2026-05-01 15:01 -18.81328 -43.05263 11995 ft 269 kts 37°
2026-05-01 15:01 -18.79832 -43.04084 11996 ft 268 kts 37°
2026-05-01 15:01 -18.78337 -43.02903 11991 ft 268 kts 37°
2026-05-01 15:01 -18.76842 -43.01721 11998 ft 268 kts 37°
2026-05-01 15:02 -18.75348 -43.00538 11996 ft 268 kts 37°
2026-05-01 15:02 -18.74359 -42.99757 11993 ft 268 kts 37°
2026-05-01 15:02 -18.72358 -42.98177 11998 ft 269 kts 37°
2026-05-01 15:02 -18.70862 -42.96995 11997 ft 269 kts 37°
2026-05-01 15:03 -18.69364 -42.95816 11996 ft 269 kts 37°
2026-05-01 15:03 -18.67868 -42.94634 11997 ft 268 kts 37°
2026-05-01 15:03 -18.66374 -42.93454 12000 ft 268 kts 37°
2026-05-01 15:03 -18.64876 -42.92272 11996 ft 269 kts 37°
2026-05-01 15:04 -18.63379 -42.91092 11990 ft 269 kts 37°
2026-05-01 15:04 -18.61882 -42.89911 11990 ft 269 kts 37°
2026-05-01 15:04 -18.60385 -42.88731 11995 ft 269 kts 37°
2026-05-01 15:04 -18.58889 -42.87553 11995 ft 268 kts 37°
2026-05-01 15:05 -18.57392 -42.86372 11996 ft 269 kts 37°
2026-05-01 15:05 -18.55892 -42.85188 11997 ft 270 kts 37°
2026-05-01 15:05 -18.54388 -42.84005 11996 ft 270 kts 37°
2026-05-01 15:05 -18.52887 -42.82823 11997 ft 269 kts 37°
2026-05-01 15:06 -18.51386 -42.81642 11997 ft 269 kts 37°
2026-05-01 15:06 -18.49883 -42.80469 11998 ft 269 kts 37°
2026-05-01 15:06 -18.48382 -42.79286 11997 ft 270 kts 37°
2026-05-01 15:06 -18.46882 -42.78101 11997 ft 269 kts 37°
2026-05-01 15:07 -18.45379 -42.76923 11998 ft 269 kts 37°
2026-05-01 15:07 -18.43857 -42.75730 11995 ft 269 kts 37°
2026-05-01 15:07 -18.42357 -42.74552 11998 ft 269 kts 37°
2026-05-01 15:07 -18.40864 -42.73378 11997 ft 269 kts 37°
2026-05-01 15:08 -18.39361 -42.72197 11998 ft 269 kts 37°
2026-05-01 15:08 -18.37858 -42.71023 11996 ft 269 kts 37°
2026-05-01 15:08 -18.36359 -42.69843 11990 ft 269 kts 37°
2026-05-01 15:08 -18.34859 -42.68668 11996 ft 269 kts 37°
2026-05-01 15:09 -18.33361 -42.67493 11995 ft 268 kts 37°
2026-05-01 15:09 -18.31863 -42.66319 11994 ft 269 kts 37°
2026-05-01 15:09 -18.30365 -42.65143 11997 ft 268 kts 37°
2026-05-01 15:09 -18.28866 -42.63970 11996 ft 268 kts 37°
2026-05-01 15:10 -18.27369 -42.62798 11997 ft 268 kts 37°
2026-05-01 15:10 -18.24373 -42.60450 11996 ft 269 kts 37°
2026-05-01 15:10 -18.22871 -42.59276 11998 ft 269 kts 37°
2026-05-01 15:11 -18.21371 -42.58099 11998 ft 269 kts 37°
2026-05-01 15:11 -18.18368 -42.55751 11996 ft 269 kts 37°
2026-05-01 15:11 -18.16869 -42.54577 11986 ft 269 kts 37°
2026-05-01 15:12 -18.15370 -42.53404 11984 ft 269 kts 37°
2026-05-01 15:12 -18.12371 -42.51061 11996 ft 269 kts 37°
2026-05-01 15:12 -18.10871 -42.49890 11997 ft 268 kts 37°
2026-05-01 15:13 -18.06375 -42.46376 11994 ft 269 kts 37°
2026-05-01 15:14 -18.03373 -42.44032 11998 ft 268 kts 37°
2026-05-01 15:14 -18.01874 -42.42862 11996 ft 268 kts 37°
2026-05-01 15:14 -17.98859 -42.40508 11992 ft 268 kts 37°
2026-05-01 15:15 -17.95861 -42.38171 11996 ft 268 kts 37°
2026-05-01 15:15 -17.92861 -42.35832 11991 ft 269 kts 37°
2026-05-01 15:16 -17.89860 -42.33495 11996 ft 268 kts 37°
2026-05-01 15:16 -17.86860 -42.31156 11998 ft 269 kts 37°
2026-05-01 15:17 -17.83864 -42.28824 11997 ft 268 kts 37°
2026-05-01 15:18 -17.79367 -42.25326 11998 ft 268 kts 37°
2026-05-01 15:18 -17.77867 -42.24158 11997 ft 269 kts 37°
2026-05-01 15:19 -17.73359 -42.20652 11998 ft 269 kts 37°
2026-05-01 15:19 -17.70346 -42.18311 11997 ft 269 kts 37°
2026-05-01 15:19 -17.68839 -42.17142 11996 ft 270 kts 37°
2026-05-01 15:20 -17.65828 -42.14801 11995 ft 269 kts 37°
2026-05-01 15:20 -17.64809 -42.14013 11992 ft 269 kts 37°
2026-05-01 15:20 -17.63305 -42.12845 11997 ft 269 kts 37°
2026-05-01 15:21 -17.61800 -42.11675 11998 ft 269 kts 37°
2026-05-01 15:21 -17.60293 -42.10507 11989 ft 270 kts 37°
2026-05-01 15:21 -17.58787 -42.09336 11996 ft 269 kts 37°
2026-05-01 15:21 -17.57281 -42.08170 11992 ft 269 kts 37°
2026-05-01 15:22 -17.54273 -42.05838 11988 ft 269 kts 37°
2026-05-01 15:22 -17.52768 -42.04670 11994 ft 269 kts 37°
2026-05-01 15:22 -17.51262 -42.03503 11996 ft 269 kts 37°
2026-05-01 15:23 -17.49758 -42.02339 11996 ft 269 kts 37°
2026-05-01 15:23 -17.48253 -42.01173 11998 ft 269 kts 37°
2026-05-01 15:23 -17.46747 -42.00006 11989 ft 269 kts 37°
2026-05-01 15:23 -17.45240 -41.98839 11994 ft 269 kts 37°
2026-05-01 15:24 -17.43737 -41.97673 11996 ft 269 kts 37°
2026-05-01 15:24 -17.42232 -41.96508 11997 ft 269 kts 37°
2026-05-01 15:24 -17.40725 -41.95339 11995 ft 269 kts 37°
2026-05-01 15:24 -17.39224 -41.94175 11997 ft 269 kts 37°
2026-05-01 15:25 -17.37720 -41.93012 11995 ft 269 kts 37°
2026-05-01 15:25 -17.36216 -41.91847 11998 ft 269 kts 37°
2026-05-01 15:25 -17.34710 -41.90679 11992 ft 269 kts 37°
2026-05-01 15:25 -17.33204 -41.89514 11996 ft 269 kts 37°
2026-05-01 15:26 -17.31679 -41.88336 11996 ft 269 kts 37°
2026-05-01 15:26 -17.30170 -41.87167 11997 ft 269 kts 37°
2026-05-01 15:26 -17.28672 -41.86008 11999 ft 269 kts 37°
2026-05-01 15:26 -17.27157 -41.84837 11995 ft 269 kts 37°
2026-05-01 15:27 -17.25652 -41.83672 11996 ft 269 kts 37°
2026-05-01 15:27 -17.24149 -41.82510 11998 ft 269 kts 37°
2026-05-01 15:27 -17.22642 -41.81343 11991 ft 269 kts 37°
2026-05-01 15:28 -17.19627 -41.79022 11997 ft 269 kts 37°
2026-05-01 15:28 -17.18124 -41.77856 11992 ft 269 kts 37°
2026-05-01 15:28 -17.16620 -41.76692 11990 ft 269 kts 37°
2026-05-01 15:29 -17.13605 -41.74366 11989 ft 269 kts 37°
2026-05-01 15:29 -17.12099 -41.73204 11996 ft 269 kts 37°
2026-05-01 15:29 -17.09084 -41.70876 11996 ft 270 kts 37°
2026-05-01 15:30 -17.06072 -41.68553 11992 ft 269 kts 37°
2026-05-01 15:31 -17.00052 -41.63914 11995 ft 269 kts 37°
2026-05-01 15:31 -16.97038 -41.61592 11996 ft 269 kts 37°
2026-05-01 15:32 -16.94002 -41.59254 11997 ft 269 kts 37°
2026-05-01 15:32 -16.90989 -41.56936 11996 ft 269 kts 37°
2026-05-01 15:33 -16.86467 -41.53458 11996 ft 269 kts 37°
2026-05-01 15:34 -16.81946 -41.49979 11991 ft 269 kts 37°